FW9692 Weather Reports


Display with metric or nautical units.
time (UTC)temp
F
wind
direction
speed
MPH
gust
MPH
rain 1hr
in
rain 24hr
in
rain mn
in
humidity
%
barometer
mb
20260903064502 85 168 9.0 13.0 0.00 0.00 0.00 41 999.3
20260903061506 84 216 7.0 9.0 0.00 0.00 0.00 42 999.3
20260903060002 86 193 8.0 10.0 0.00 0.00 0.00 40 999.5
20260903054502 86 189 10.0 12.0 0.00 0.00 0.00 40 999.5
20260903051502 85 198 9.0 11.0 0.00 0.00 0.00 42 999.5
20260903050100 85 208 9.0 10.0 0.00 0.00 0.00 42 999.5
20260903044601 85 219 8.0 10.0 0.00 0.00 0.00 43 999.5
20260903041605 87 214 8.0 11.0 0.00 0.00 0.00 37 999.6
20260903040058 87 210 8.0 10.0 0.00 0.00 0.00 38 999.5
20260903034556 87 207 9.0 10.0 0.00 0.00 0.00 37 999.4
20260903031559 88 214 9.0 12.0 0.00 0.00 0.00 37 999.2
20260903030058 89 209 12.0 17.0 0.00 0.00 0.00 36 999.0
20260903024604 89 193 13.0 17.0 0.00 0.02 0.00 39 998.8
20260903021554 91 191 2.0 4.0 0.00 0.02 0.00 34 998.3
20260903020053 92 123 2.0 3.0 0.00 0.02 0.00 34 998.2
20260903014555 92 144 2.0 3.0 0.00 0.02 0.00 33 998.2
20260903011555 92 184 5.0 6.0 0.00 0.02 0.00 31 998.1
20260903010054 92 182 5.0 10.0 0.00 0.02 0.00 34 998.1
20260903004557 92 169 12.0 13.0 0.00 0.02 0.00 33 998.1
20260903001518 92 148 10.0 13.0 0.00 0.02 0.00 35 998.0
20260903000035 92 147 12.0 15.0 0.00 0.02 0.00 35 998.2
20260902234515 93 123 10.0 14.0 0.00 0.02 0.00 30 998.2
20260902231532 92 134 18.0 22.0 0.00 0.02 0.00 34 998.3
20260902230027 91 136 17.0 26.0 0.00 0.02 0.00 34 998.5
20260902224609 90 123 20.0 28.0 0.00 0.02 0.00 36 998.5
20260902223054 91 138 21.0 32.0 0.00 0.02 0.00 34 998.6
20260902221554 93 140 13.0 21.0 0.00 0.02 0.00 33 998.7
20260902220057 91 126 18.0 40.0 0.00 0.02 0.00 34 998.7
20260902214556 92 142 36.0 47.0 0.00 0.02 0.00 35 998.2
20260902213051 96 309 5.0 12.0 0.00 0.02 0.00 28 998.5
20260902211547 95 236 8.0 18.0 0.00 0.02 0.00 30 998.6
20260902210051 94 284 15.0 19.0 0.00 0.02 0.00 31 999.0
20260902204549 95 263 14.0 18.0 0.00 0.02 0.00 29 999.2
20260902203112 95 141 14.0 22.0 0.00 0.02 0.00 29 999.2
20260902201604 95 83 7.0 17.0 0.00 0.02 0.00 30 999.4
20260902200125 95 177 9.0 25.0 0.00 0.02 0.00 29 999.7
20260902194548 95 142 8.0 18.0 0.00 0.02 0.00 29 999.8
20260902193046 95 51 3.0 9.0 0.00 0.02 0.00 30 1000.1
20260902191549 95 183 11.0 17.0 0.00 0.02 0.00 29 1000.4
20260902190054 94 64 5.0 12.0 0.00 0.02 0.00 31 1000.7
20260902184545 94 148 10.0 16.0 0.00 0.02 0.00 31 1000.8
20260902183050 94 26 3.0 15.0 0.00 0.02 0.00 32 1001.1
20260902181547 93 18 4.0 12.0 0.00 0.02 0.00 34 1001.4
20260902180044 92 100 7.0 18.0 0.00 0.02 0.00 35 1001.7
20260902174529 92 126 9.0 14.0 0.00 0.02 0.00 35 1002.0
20260902173029 91 186 7.0 15.0 0.00 0.02 0.00 36 1002.2
20260902171527 91 93 6.0 13.0 0.00 0.02 0.00 36 1002.3
20260902170025 90 134 6.0 10.0 0.00 0.02 0.00 38 1002.5
20260902164534 90 135 5.0 12.0 0.00 0.02 0.00 38 1002.5
20260902163032 89 138 2.0 10.0 0.00 0.02 0.00 40 1002.5
20260902161543 88 141 2.0 8.0 0.00 0.02 0.00 41 1002.7
20260902160035 87 189 6.0 11.0 0.00 0.02 0.00 42 1002.6
20260902154523 86 102 4.0 9.0 0.00 0.02 0.00 44 1002.6
20260902153012 84 63 6.0 9.0 0.00 0.02 0.00 46 1002.6
20260902151508 83 69 4.0 6.0 0.00 0.02 0.00 49 1002.6
20260902150007 81 67 5.0 7.0 0.00 0.02 0.00 51 1002.7
20260902144501 79 24 4.0 9.0 0.00 0.02 0.00 55 1002.6
20260902143105 77 45 6.0 9.0 0.00 0.02 0.00 58 1002.6
20260902141601 76 20 3.0 6.0 0.00 0.02 0.00 57 1002.5
20260902134555 76 330 4.0 5.0 0.00 0.02 0.00 56 1002.3
20260902133052 77 346 5.0 8.0 0.00 0.02 0.00 53 1002.1
20260902131551 76 323 5.0 6.0 0.00 0.02 0.00 54 1001.9
20260902130147 76 330 3.0 4.0 0.00 0.02 0.00 56 1001.9
20260902124558 76 9 3.0 6.0 0.00 0.02 0.00 56 1001.9
20260902123047 76 48 3.0 6.0 0.00 0.02 0.00 58 1001.9
20260902121547 75 76 4.0 6.0 0.00 0.02 0.00 59 1001.7
20260902120048 77 344 6.0 9.0 0.00 0.02 0.00 54 1001.6
20260902114543 78 280 7.0 11.0 0.00 0.02 0.00 52 1001.5
20260902113105 75 291 1.0 3.0 0.00 0.02 0.00 58 1001.4
20260902111550 76 83 4.0 8.0 0.00 0.02 0.00 58 1001.5
20260902110039 76 257 6.0 9.0 0.00 0.02 0.00 55 1001.3
20260902104541 77 237 8.0 9.0 0.00 0.02 0.00 54 1001.2
20260902103037 77 213 7.0 9.0 0.00 0.02 0.00 54 1001.1
20260902101540 77 200 6.0 9.0 0.00 0.02 0.00 54 1001.2
20260902100034 77 185 7.0 8.0 0.00 0.02 0.00 55 1001.1
20260902094535 77 167 8.0 10.0 0.00 0.02 0.00 54 1001.1
20260902093033 78 182 8.0 9.0 0.00 0.02 0.00 53 1001.1
20260902091540 79 182 7.0 9.0 0.00 0.02 0.00 52 1001.1
20260902090028 79 182 11.0 16.0 0.00 0.02 0.00 52 1001.2
20260902084527 79 169 14.0 18.0 0.00 0.02 0.02 51 1001.1
20260902083028 80 169 14.0 16.0 0.00 0.02 0.02 51 1001.2
20260902081534 80 171 13.0 14.0 0.00 0.02 0.02 51 1001.2
20260902080022 81 165 14.0 17.0 0.00 0.02 0.02 49 1001.2
20260902074528 80 171 13.0 14.0 0.00 0.02 0.02 50 1001.2
20260902073023 81 173 8.0 10.0 0.00 0.02 0.02 49 1001.2
20260902071529 81 175 8.0 13.0 0.00 0.02 0.02 49 1001.1
20260902070027 81 178 12.0 16.0 0.00 0.02 0.02 49 1001.1